Regional Weather Roundup
Issued by NWS

Home | Current Version | Previous Version | Text Only | Print | Product List | Glossary Off
Versions: 1 2 3 4 5 6 7 8 9 10 11 12 13 14 15 16 17 18 19 20 21 22 23 24 25 26 27 28 29 30 31 32 33 34 35 36 37 38 39 40 41 42 43 44 45 46 47 48 49 50

000
ASUS45 KABQ 291910
RWRNM
NEW MEXICO REGIONAL WEATHER ROUNDUP
NATIONAL WEATHER SERVICE ALBUQUERQUE NM
100 PM MDT THU SEP 29 2016

NOTE: "FAIR" MEANS FEW OR NO CLOUDS BELOW 12,000 FEET AGL WITH NO
       SIGNIFICANT WEATHER OR OBSTRUCTIONS TO VISION.

      THIS PRODUCT IS RELEASED AS TWO VERSIONS.  ONE VERSION NEAR
      THE TOP OF THE HOUR CONTAINING PRELIMINARY DATA FROM ALBUQUERQUE
      AND OTHER STATIONS.  A FINAL VERSION WITH ADDITIONAL DATA IS
      ISSUED ABOUT 10 MINUTES AFTER THE HOUR.

NMZ501-503-504-510>518-292000-
NORTHWEST PLATEAU/NORTHCENTRAL MOUNTAINS

CITY           SKY/WX    TMP DP  RH WIND       PRES   REMARKS
FARMINGTON     CLOUDY    62  52  69 E13       30.43F
LOS ALAMOS     FAIR      69  34  27 SE15      30.52F
SANTA FE       FAIR      75  37  25 S18G28    30.46F
TAOS           FAIR      70  30  23 W8        30.51F

$$
NMZ402-403-502-505>509-292000-
WESTCENTRAL MOUNTAINS/SOUTHWEST MOUNTAINS

CITY           SKY/WX    TMP DP  RH WIND       PRES   REMARKS
GALLUP         LGT RAIN  56  52  86 N8        30.50R
SILVER CITY    PTSUNNY   76  54  46 SE16G22   30.38F

$$
NMZ407-409-411-412-292000-
SOUTHERN DESERTS

CITY           SKY/WX    TMP DP  RH WIND       PRES   REMARKS
DEMING         CLOUDY    80  57  45 E9G20     30.31F
LAS CRUCES     CLOUDY    79  48  33 SE13G20   30.35F
HOLLOMAN AFB   FAIR      81  42  24 S13       30.30F
ALAMOGORDO     FAIR      79  43  27 W7        30.33F
T OR C         PTSUNNY   79  52  38 SE7       30.34F

$$
NMZ519>523-292000-
CENTRAL VALLEYS/CENTRAL HIGHLANDS

CITY           SKY/WX    TMP DP  RH WIND       PRES   REMARKS
ALBUQUERQUE    PTSUNNY   78  41  26 VRB7G17   30.39F
DOUBLE EAGLE   PTSUNNY   77  41  27 E12       30.43F
MORIARTY ARPT  FAIR      76  36  24 SE7G20    30.47F
CLINES CORNERS FAIR      70  38  31 SE10G21   30.51F
BELEN          FAIR      79  42  26 S9        30.37F
SOCORRO        FAIR      80  42  25 S10       30.36F

$$
NMZ524>526-539-540-292000-
SOUTHCENTRAL MOUNTAINS

CITY           SKY/WX    TMP DP  RH WIND       PRES   REMARKS
RUIDOSO        FAIR      68  39  34 SE13      30.52F

$$
NMZ527>531-292000-
NORTHEAST HIGHLANDS/NORTHEAST PLAINS

CITY           SKY/WX    TMP DP  RH WIND       PRES   REMARKS
LAS VEGAS      FAIR      70  34  26 S13G23    30.52F
RATON          FAIR      72  37  28 S14G21    30.46F
CLAYTON        FAIR      72  49  44 S13G22    30.42F

$$
NMZ532>537-292000-
EASTCENTRAL PLAINS

CITY           SKY/WX    TMP DP  RH WIND       PRES   REMARKS
TUCUMCARI      FAIR      81  46  29 MISG      30.37F
CANNON AFB     NOT AVBL
CLOVIS AIRPORT FAIR      72  46  40 SE10      30.42F

$$
NMZ028-029-538-292000-
SOUTHEAST PLAINS

CITY           SKY/WX    TMP DP  RH WIND       PRES   REMARKS
ROSWELL        FAIR      77  44  30 S7        30.37F
ARTESIA        FAIR      77  48  36 SE10      30.36F
CARLSBAD       FAIR      77  49  37 VRB5      30.33F
HOBBS          SUNNY     73  50  43 E10       30.39F


$$




USA.gov is the U.S. government's official web portal to all federal, state and local government web resources and services.